User: anonymous   Login
Location: Stigler
(35.2540°N, 95.1230°W)
Time: 03:45:01
(UTC-05:00)
Language:

Cosmos 1805 - Orbit

View from above orbital plane
View from above orbital plane
View from above satellite
View from above satellite

Ground track
Ground track

The orbit data is extracted from the following two-line orbital elements,

1 17191U 86097A   16239.91748203 +.00000543 +00000-0 +30445-4 0  9996
2 17191 082.4748 319.1977 0005450 028.7043 331.4486 15.11307615618902
Epoch (UTC): 26 August 2016 22:01:10
Eccentricity: 0.0005450
inclination: 82.4748°
perigee height: 528 km
apogee height: 536 km
right ascension of ascending node: 319.1977°
argument of perigee: 28.7043°
revolutions per day: 15.11307615
mean anomaly at epoch: 331.4486°
orbit number at epoch: 61890

The dashed part of the orbit path shows where the satellite is in the earth's shadow,  

DLR